Vorticity
nan nan nan nan nan nan nan nan nan nan nan nan nan nan nan nan nan nan nan nan nan nan nan nan nan nan nan nan nan nan nan nan nan nan nan nan nan nan nan nan nan nan nan nan nan nan nan nan nan nan nan nan nan nan nan nan nan nan nan nan nan nan nan nan nan nan nan nan nan nan nan nan nan nan nan nan nan nan nan nan nan nan nan nan nan nan nan nan nan nan nan nan nan nan nan nan nan nan nan nan nan nan nan
nan 5 5 4 5 5 5 5 5 5 5 5 5 5 5 5 5 5 5 5 5 5 5 6 6 6 6 6 6 5 5 5 5 5 5 5 5 5 5 5 5 5 7 8 8 8 11 12 8 5 6 9 9 7 2 1 4 5 8 7 1 -2 -6 -6 1 5 6 6 5 5 5 5 5 5 5 5 5 5 5 5 5 5 5 5 5 5 5 5 5 6 5 5 6 6 6 6 6 6 6 6 6 6 nan
nan 5 5 4 5 5 5 5 5 5 5 5 5 5 5 5 5 5 5 5 5 5 5 6 6 6 6 6 5 5 5 5 5 5 5 5 5 5 5 5 4 5 6 8 9 8 8 9 8 7 5 6 7 7 5 4 4 5 8 6 -0 -3 -5 -3 3 6 6 6 6 6 5 5 5 5 5 5 5 6 5 5 5 6 5 5 5 5 5 5 5 5 5 6 6 5 6 6 6 6 6 6 7 7 nan
nan 5 5 5 5 5 5 5 5 5 5 5 5 5 5 6 5 5 5 5 5 5 5 5 6 6 6 6 5 5 5 5 5 5 5 5 5 5 5 5 4 5 6 8 11 14 10 5 6 7 4 3 5 5 6 6 6 6 9 5 -3 -7 -6 0 5 7 7 6 6 6 6 5 5 5 5 5 5 6 6 6 6 5 5 5 5 5 5 5 5 5 5 5 5 5 5 5 6 6 6 6 7 7 nan
nan 5 5 5 5 5 5 5 5 5 5 5 5 5 6 6 5 5 5 5 5 5 5 5 5 6 6 6 5 5 5 5 5 5 5 5 5 5 5 5 5 5 5 7 10 17 14 8 8 6 4 4 4 4 4 6 6 8 9 3 -5 -9 -4 3 6 7 7 6 6 6 6 5 5 5 5 5 6 5 6 6 6 6 6 6 6 6 6 6 6 5 5 5 5 5 5 5 5 6 6 6 6 6 nan
nan 6 6 5 5 5 5 5 5 5 5 5 5 5 5 5 5 5 5 5 5 5 5 5 5 6 6 6 5 5 5 5 5 5 5 5 5 5 5 5 5 5 5 6 9 14 15 13 12 7 4 3 4 5 5 6 6 8 7 1 -5 -8 -3 3 6 7 6 6 6 6 6 5 5 5 5 5 5 5 6 6 6 6 6 6 6 6 6 6 6 6 5 5 5 5 5 5 5 5 6 6 6 6 nan
nan 5 6 6 5 5 5 5 5 6 5 5 5 5 5 5 6 6 5 5 5 5 5 5 5 5 5 6 5 5 5 4 4 4 4 4 4 4 5 5 5 5 4 5 8 13 15 13 11 7 6 3 2 6 7 4 5 8 7 -0 -7 -6 -0 3 6 6 6 6 6 6 5 5 5 5 5 5 5 6 6 5 6 6 6 6 6 6 6 6 6 6 6 6 6 5 5 5 5 6 6 6 6 6 nan
nan 5 6 6 5 5 5 5 5 6 5 5 5 5 5 5 6 6 5 5 5 5 5 5 5 5 5 5 5 5 5 4 4 4 4 4 4 5 5 5 5 5 4 5 7 11 15 14 10 7 7 5 0 3 7 6 5 8 7 -2 -7 -5 0 3 5 6 5 5 5 5 5 5 5 5 5 5 5 5 5 5 5 6 6 6 6 6 6 6 6 6 6 6 6 6 6 6 6 5 6 6 6 6 nan
nan 5 6 6 5 5 5 5 5 5 5 5 5 5 5 5 5 5 5 5 5 5 5 5 5 5 5 5 5 5 5 5 5 4 4 5 5 5 5 5 5 5 5 5 6 9 15 15 9 7 6 3 0 3 10 9 5 7 4 -4 -6 -5 -0 4 5 5 5 5 5 5 5 5 5 5 5 5 5 5 5 5 5 6 6 6 6 6 6 6 6 6 6 6 6 6 6 6 6 6 6 6 6 6 nan
nan 5 5 6 6 5 5 5 5 5 5 5 5 5 5 5 5 5 5 5 5 5 5 5 5 5 5 5 5 5 5 5 5 5 5 5 5 5 5 5 5 5 5 5 6 8 15 15 7 8 6 2 2 5 10 9 4 6 3 -7 -8 -3 3 5 5 5 5 5 5 5 4 5 5 5 5 5 5 5 5 5 5 5 5 6 6 6 6 6 6 6 6 6 6 6 6 6 6 6 6 6 6 6 nan
nan 5 5 5 5 5 5 5 5 5 6 6 5 5 5 5 5 5 5 5 5 5 5 5 5 5 5 5 5 5 5 4 5 5 5 5 5 5 5 5 5 6 6 6 6 8 12 12 7 9 7 2 4 7 10 8 4 7 2 -9 -8 -1 4 6 5 5 5 5 5 5 4 5 5 5 5 5 5 5 5 5 5 5 5 5 5 5 6 6 6 6 6 6 6 6 6 6 6 6 6 6 6 6 nan
nan 5 4 5 5 5 5 5 5 5 5 5 5 5 5 5 5 5 5 5 5 5 5 5 6 6 5 4 4 4 4 4 4 4 5 5 5 5 5 6 6 7 7 7 7 8 9 8 6 7 6 5 6 8 9 6 5 7 -4 -12 -5 1 4 6 5 5 5 5 5 5 4 5 5 5 5 5 4 5 5 5 5 5 5 5 5 5 5 5 6 6 6 6 6 6 6 6 6 6 6 6 6 6 nan
nan 5 5 4 4 5 5 5 5 5 5 5 5 5 5 5 5 5 4 4 4 4 5 5 6 6 6 5 4 4 3 3 4 4 5 5 5 6 6 6 7 7 8 8 8 9 7 5 3 5 8 8 6 7 7 6 6 2 -9 -11 -1 3 5 6 5 5 5 5 5 4 5 5 5 5 5 4 4 5 5 5 5 5 5 5 5 5 5 5 5 5 5 5 5 6 6 6 6 6 6 6 6 6 nan
nan 4 4 4 5 5 5 5 5 5 5 5 5 5 5 5 5 4 4 4 4 4 4 5 5 6 6 6 4 3 3 2 2 3 4 5 5 6 6 7 8 8 9 10 10 9 5 3 5 6 8 7 4 5 8 8 5 -3 -10 -5 1 4 5 6 5 5 5 5 5 5 5 5 5 5 5 5 4 4 4 5 5 5 5 5 5 5 5 5 5 5 5 5 5 5 6 6 6 6 6 6 6 6 nan
nan 4 4 5 5 5 5 5 5 5 5 5 5 5 5 5 5 5 4 4 4 4 4 4 5 6 7 7 6 4 2 1 1 1 2 4 5 6 6 7 8 8 11 12 8 5 3 4 8 8 6 5 5 6 8 8 2 -7 -9 -1 2 4 5 6 5 5 5 5 5 5 5 5 5 5 5 5 5 4 5 5 5 5 5 5 5 5 5 5 5 5 5 5 5 5 5 6 6 6 6 6 6 6 nan
nan 4 4 4 5 5 5 5 4 4 5 5 5 5 5 5 5 4 4 4 4 4 4 4 5 6 7 7 7 6 1 -1 -1 -1 -0 2 4 6 6 7 9 10 12 10 5 2 3 7 10 8 5 4 7 7 7 6 -1 -9 -6 1 3 5 6 5 5 5 5 5 5 5 5 5 5 5 5 5 4 5 5 5 5 5 5 5 5 5 5 5 5 5 5 5 5 5 5 5 6 6 6 6 6 6 nan
nan 4 4 4 5 5 5 5 5 4 4 4 4 5 4 4 4 4 4 4 4 4 4 4 4 5 6 8 8 8 3 -2 -3 -4 -4 -1 2 5 6 7 9 11 10 6 3 2 5 9 10 8 5 5 7 7 7 4 -4 -8 -3 2 4 5 6 5 5 5 5 5 5 5 5 4 4 5 4 4 4 4 5 5 5 5 5 5 5 5 5 5 5 5 5 5 5 5 5 5 5 5 6 6 6 6 nan
nan 4 5 5 5 5 5 5 5 4 4 4 4 4 4 4 4 4 4 4 5 4 4 4 4 4 5 8 9 10 7 3 2 -2 -6 -5 -0 4 6 7 8 9 8 4 3 4 7 9 9 7 5 5 7 6 6 2 -5 -6 -1 3 4 5 5 5 5 5 5 5 5 5 5 4 4 4 4 4 4 4 5 5 5 5 5 5 5 5 5 5 5 5 5 5 5 5 5 5 5 5 5 5 6 6 nan
nan 4 5 4 4 5 5 4 4 4 4 4 4 4 3 3 3 3 3 4 4 4 4 4 3 3 5 7 8 9 8 7 7 5 -0 -4 -2 2 6 7 6 6 5 3 4 6 9 9 8 7 6 5 6 6 5 1 -4 -4 -0 3 4 5 5 5 5 5 5 5 5 5 4 4 4 4 4 4 4 5 5 5 5 5 5 5 5 5 5 5 5 5 5 5 5 5 5 5 5 5 5 6 6 6 nan
nan 2 2 3 3 4 3 3 3 3 3 4 3 2 1 2 2 2 2 2 2 3 4 4 3 1 3 6 7 8 8 7 8 8 6 3 2 4 6 6 5 5 3 3 5 8 9 8 8 7 6 6 6 6 5 -1 -5 -4 1 4 5 5 5 5 5 5 5 5 5 4 4 4 4 4 4 4 5 5 5 5 5 5 5 5 5 5 5 5 5 5 5 5 5 5 5 5 5 5 5 6 6 6 nan
nan 2 2 2 2 2 2 1 1 1 2 4 3 1 1 -0 0 0 0 0 0 2 4 5 5 3 2 4 6 7 8 7 8 8 6 6 6 6 6 5 5 4 3 4 7 9 8 8 7 6 6 7 6 6 3 -3 -4 -2 2 4 5 5 5 5 5 5 5 5 5 4 4 4 4 4 4 5 5 5 5 4 5 4 4 5 5 5 5 5 5 5 5 5 5 5 5 5 5 5 6 6 6 6 nan
nan 5 4 4 4 3 3 3 2 2 2 4 4 3 3 2 2 2 2 1 0 1 4 6 6 5 2 3 5 7 8 7 7 7 7 6 6 6 6 6 5 5 4 6 8 8 7 8 7 6 7 7 7 6 1 -4 -1 1 2 4 5 5 6 5 5 5 5 5 5 4 4 4 4 4 5 5 5 5 5 5 4 4 5 5 5 5 5 5 5 5 5 5 5 5 5 5 5 6 6 6 6 6 nan
nan 7 6 6 6 6 6 5 5 5 5 4 4 5 5 5 5 5 5 3 2 2 4 7 6 6 4 4 5 6 6 6 7 7 7 6 6 6 5 5 5 5 5 6 7 7 7 8 7 7 7 6 6 5 -0 -3 0 1 2 4 5 5 5 5 5 5 5 5 5 4 4 4 4 4 5 5 5 5 5 5 4 4 5 5 5 5 5 5 5 5 5 5 5 6 6 6 6 6 6 5 6 6 nan
nan 7 7 7 7 7 7 7 6 6 6 5 5 6 6 6 6 6 6 5 4 3 4 7 7 6 5 5 6 6 5 5 6 8 8 6 6 6 4 4 5 6 6 5 7 8 7 7 7 6 6 6 6 5 0 -1 1 2 3 4 4 5 5 5 5 5 5 5 5 5 4 4 4 4 5 5 5 5 5 4 5 5 5 5 5 5 5 5 5 5 5 5 5 6 6 6 6 6 6 6 6 5 nan
nan 7 7 7 7 7 7 7 7 6 6 6 6 7 6 6 6 6 7 6 6 5 5 6 7 6 5 5 6 5 5 5 5 7 7 6 5 6 5 4 6 7 6 6 8 8 7 6 6 6 5 6 7 5 2 0 1 3 3 4 4 5 5 5 5 5 5 5 5 5 4 4 4 4 5 5 5 5 5 5 5 5 5 5 5 5 5 5 5 5 5 5 6 6 6 6 6 6 6 5 5 6 nan
nan 7 7 7 7 7 7 7 7 7 7 6 6 6 6 6 6 6 6 6 6 6 6 5 6 6 5 4 5 5 6 6 5 5 6 6 6 7 6 5 6 6 6 7 8 7 6 5 6 5 5 7 7 6 4 2 3 4 4 4 4 5 5 5 5 5 5 5 5 5 4 4 4 5 5 5 5 5 5 5 5 5 5 5 5 5 5 5 5 5 5 5 5 5 6 5 5 5 5 5 5 5 nan
nan 7 7 7 7 7 7 7 7 7 6 6 6 6 6 6 6 6 6 6 6 6 5 5 5 6 5 4 5 6 7 6 5 5 6 7 7 7 6 6 6 5 7 9 8 6 5 5 5 5 5 7 7 7 6 4 5 4 4 4 4 5 5 5 5 5 5 5 5 5 5 5 5 5 5 5 5 5 5 5 6 5 5 5 5 5 4 4 5 5 5 5 5 5 5 5 5 5 5 5 5 5 nan
nan 8 8 7 7 7 7 7 7 7 6 6 6 6 6 6 7 6 6 6 6 6 5 5 5 6 6 5 4 5 7 6 5 5 6 8 7 6 5 5 5 6 8 8 6 5 5 5 4 5 7 7 7 8 6 6 5 4 4 4 4 4 5 5 5 5 5 5 5 5 5 5 5 5 5 5 5 5 5 5 6 5 6 5 5 5 5 5 5 5 5 5 5 5 5 5 5 5 5 5 5 5 nan
nan 7 7 7 7 7 7 7 7 7 7 6 6 6 6 6 7 7 7 6 6 6 6 6 6 6 6 6 6 5 6 6 5 5 7 8 6 4 4 6 6 7 7 6 6 6 6 5 5 6 8 7 8 8 6 6 5 4 5 5 4 4 5 5 6 6 6 6 6 6 5 5 5 5 5 5 5 5 5 5 5 5 5 5 5 5 5 5 5 5 5 5 5 5 5 5 5 5 5 5 5 5 nan
nan 7 7 7 7 7 7 7 7 7 7 7 6 6 6 6 7 7 7 6 6 6 6 6 6 6 6 6 6 6 6 6 6 6 6 6 5 4 6 7 6 6 7 8 9 9 8 7 7 8 9 9 9 7 6 6 5 6 5 5 5 5 5 6 6 6 6 6 6 5 5 5 5 5 5 5 5 5 5 5 5 5 5 5 5 5 5 5 5 5 5 5 5 5 5 5 5 5 5 5 5 5 nan
nan 7 7 7 7 7 7 7 7 7 7 7 7 7 7 7 7 7 7 7 7 6 6 6 6 6 6 6 6 7 6 7 7 6 6 6 6 6 6 5 5 7 9 10 10 9 8 8 9 9 8 6 6 7 8 7 7 8 6 6 6 6 6 6 6 6 6 6 6 6 5 5 5 5 5 5 5 5 5 5 4 4 5 5 5 5 5 5 5 5 5 5 5 5 5 5 5 5 5 5 5 5 nan
nan 7 7 7 7 7 7 7 7 7 7 7 7 7 7 7 7 7 7 7 7 7 7 7 6 6 6 6 6 6 6 6 7 6 6 7 7 7 7 6 7 8 9 9 7 6 7 8 7 5 4 3 5 7 8 7 7 8 9 9 8 7 7 7 7 6 6 6 6 6 5 5 5 5 5 5 5 5 5 4 4 4 4 5 5 5 5 5 5 5 6 6 6 6 6 5 5 5 5 5 5 5 nan
nan 7 7 7 7 7 7 7 7 7 7 7 7 7 7 7 7 7 7 7 7 7 7 7 7 6 6 6 6 6 5 6 6 6 7 7 7 8 7 7 8 9 8 7 6 6 6 5 5 5 5 6 6 5 6 6 7 9 12 11 10 9 7 7 7 6 6 6 6 6 5 5 5 5 4 5 5 4 4 4 5 5 5 5 5 5 5 5 5 6 6 6 6 6 6 6 5 5 5 5 5 5 nan
nan 6 7 7 7 7 7 7 7 7 7 7 7 7 7 7 7 7 6 6 6 6 6 6 6 6 6 6 6 6 6 6 6 6 6 6 6 6 6 8 9 10 8 6 5 5 6 6 7 8 7 7 6 6 6 7 8 10 11 9 9 8 7 7 7 7 7 7 7 6 6 5 5 5 5 5 4 4 4 5 5 5 5 5 6 6 6 6 6 5 6 6 6 6 6 6 6 6 5 5 5 5 nan
nan 6 7 7 7 7 7 7 7 7 7 7 8 8 8 7 6 6 6 6 6 6 6 6 6 6 6 6 6 6 6 6 6 6 6 6 6 6 8 9 9 9 8 7 7 8 7 7 8 8 7 7 7 9 9 9 9 9 7 8 9 10 11 11 11 11 10 8 8 7 6 5 5 5 5 5 5 4 4 5 5 6 6 6 6 6 6 6 6 6 6 6 6 7 7 7 6 6 6 6 6 6 nan
nan 7 7 7 7 7 7 7 7 8 7 7 8 9 7 5 5 5 6 6 6 7 7 6 6 6 6 7 7 7 7 7 8 8 8 8 9 9 9 8 7 8 8 9 10 10 8 7 7 6 7 8 10 11 9 9 8 7 7 10 13 15 16 17 17 14 11 9 8 7 6 6 6 6 5 5 4 4 5 6 6 6 6 6 6 6 6 6 6 6 6 7 7 7 7 7 7 7 7 7 6 6 nan
nan 7 7 7 7 7 7 7 8 9 7 6 7 7 6 5 6 6 6 7 7 7 6 6 6 6 6 7 7 7 6 7 7 8 8 9 9 9 9 9 9 8 8 8 9 8 7 6 6 6 7 9 10 9 9 10 8 6 7 9 11 13 16 16 16 14 13 10 9 8 7 7 6 6 5 5 4 4 5 6 6 6 6 6 6 6 6 6 6 7 7 7 7 7 7 7 7 7 7 7 6 6 nan
nan 6 7 7 7 7 6 8 9 8 7 6 6 7 6 6 6 7 7 7 7 7 6 7 7 7 6 6 6 6 6 6 6 7 7 7 7 8 8 9 9 8 8 7 7 6 6 7 8 8 8 8 8 8 9 9 7 6 6 7 7 9 10 9 10 12 14 14 12 10 8 8 7 5 4 4 4 5 5 6 6 6 6 6 6 6 6 6 6 6 6 6 6 6 6 6 7 7 7 7 7 6 nan
nan 6 7 8 8 7 7 8 9 7 6 6 6 7 7 6 7 7 7 7 7 7 6 6 7 7 7 7 7 7 7 6 6 6 6 6 6 7 7 7 8 8 8 7 7 7 8 8 8 7 7 8 8 9 9 7 6 6 6 6 6 6 6 6 7 9 12 15 15 13 9 8 6 5 4 4 5 5 6 6 6 6 6 6 6 6 7 7 6 6 6 5 6 5 6 6 6 6 6 6 6 6 nan
nan 6 7 7 8 7 9 10 9 5 4 6 7 8 7 6 7 6 7 7 7 7 7 6 6 7 7 7 7 7 8 7 7 6 6 6 6 6 6 7 7 7 7 7 7 8 8 7 7 7 8 9 10 10 9 7 6 7 7 6 5 4 3 4 4 6 8 10 13 13 11 7 5 4 4 5 5 6 6 5 5 6 6 6 7 7 7 6 6 5 5 5 5 5 6 6 6 6 6 6 6 6 nan
nan 6 7 7 8 8 10 10 7 4 4 6 7 8 7 6 7 7 7 7 7 8 8 6 5 6 8 8 7 7 7 7 7 6 5 5 5 5 6 7 7 7 7 7 7 7 7 8 9 10 10 10 9 8 6 6 7 7 7 5 3 2 1 1 3 5 6 7 8 10 11 7 6 5 5 6 6 6 6 6 6 6 7 7 7 7 6 6 5 5 5 5 5 5 6 6 6 6 6 6 6 6 nan
nan 6 6 7 8 9 11 9 5 4 5 7 7 8 7 7 7 8 8 7 7 8 8 7 5 5 6 7 7 7 7 7 7 7 7 6 6 6 6 6 6 7 7 7 7 7 8 9 10 10 11 11 9 7 5 7 7 7 6 6 5 5 4 4 6 7 5 5 5 7 9 9 8 6 7 7 7 7 7 7 7 8 8 8 7 6 6 5 5 5 5 5 5 6 6 6 6 6 6 7 7 7 nan
nan 6 6 6 7 9 10 9 5 4 5 6 7 7 7 7 7 8 8 8 7 7 8 9 7 5 6 7 7 7 7 7 7 8 8 8 8 7 5 6 7 7 8 9 8 8 8 8 8 8 8 10 10 9 8 8 8 7 8 9 11 11 10 9 8 6 4 3 3 5 6 9 10 10 9 9 9 9 9 9 9 9 9 8 7 6 5 5 5 5 5 5 5 5 6 6 6 6 6 7 7 7 nan
nan 7 6 6 7 9 9 7 5 4 5 7 7 7 7 7 8 7 7 7 7 7 8 9 8 7 6 6 7 7 7 7 7 8 8 8 8 7 7 8 8 8 8 8 8 8 7 7 7 8 9 9 10 12 13 11 10 9 10 10 11 12 11 10 7 4 3 3 4 5 4 6 9 13 13 14 14 14 13 12 10 9 8 7 6 6 5 5 5 6 6 6 5 5 5 5 6 6 6 7 7 7 nan
nan 8 8 8 8 9 9 6 4 4 6 7 8 7 7 7 7 7 7 6 6 7 7 8 8 8 5 5 6 6 6 6 6 7 7 7 7 7 9 9 9 9 8 8 8 8 7 6 8 9 10 9 10 12 14 13 13 12 11 8 8 9 9 8 6 5 5 7 8 7 4 4 6 10 14 17 19 19 17 13 10 8 7 6 6 6 6 6 6 6 6 5 5 5 5 5 6 6 6 7 7 7 nan
nan 7 8 9 9 10 9 5 3 4 6 7 8 7 7 7 7 7 7 6 6 6 6 7 8 8 7 5 4 5 6 6 6 6 7 8 8 9 8 8 8 9 9 9 8 8 7 8 9 9 8 8 9 9 10 12 13 13 12 10 8 7 7 7 7 7 8 10 9 6 6 6 5 6 11 14 16 16 14 12 10 8 7 7 7 6 7 7 6 6 6 6 5 5 5 5 6 6 7 7 7 7 nan
nan 6 9 10 9 9 9 5 2 4 6 7 7 7 6 6 7 8 7 6 7 7 8 6 6 7 9 8 6 6 7 7 7 8 8 9 9 9 9 8 9 9 9 8 8 7 7 8 8 8 8 8 8 9 8 10 11 11 10 11 9 7 7 8 8 9 11 10 8 5 6 7 7 7 8 9 9 9 10 12 12 10 9 8 8 7 7 7 7 7 6 6 6 6 6 6 6 6 7 7 7 7 nan
nan 5 9 11 10 8 9 6 2 3 6 7 7 8 6 5 6 7 6 5 7 9 10 8 6 4 7 9 9 9 9 8 8 7 8 9 10 11 13 12 11 10 10 9 8 7 5 6 7 8 9 10 10 9 10 10 9 8 8 8 9 8 8 8 8 10 11 7 5 4 4 6 7 9 7 7 7 7 8 11 12 13 12 10 9 8 8 8 8 8 7 7 6 6 5 5 5 6 6 6 7 7 nan
nan 4 8 12 10 7 9 8 4 3 5 6 8 10 9 7 6 5 4 3 4 8 10 10 9 7 5 7 9 10 10 9 8 7 7 9 11 14 15 14 12 11 11 11 11 11 10 7 7 7 8 9 10 10 10 9 8 7 7 7 8 9 9 9 11 12 10 5 4 4 5 6 7 9 8 8 7 7 7 8 10 12 12 11 11 12 13 11 10 9 8 7 6 5 5 5 5 5 6 6 7 7 nan
nan 4 7 10 11 8 9 9 5 4 5 5 7 9 10 9 7 7 6 2 0 3 7 10 12 11 7 6 8 10 10 10 9 8 9 8 8 10 12 13 11 11 13 16 16 16 15 11 9 8 6 8 9 9 8 7 6 6 6 7 7 8 10 12 13 13 9 8 7 7 7 6 7 9 9 7 6 6 6 6 6 7 9 12 16 19 19 17 14 10 8 5 4 4 4 4 5 6 6 7 7 8 nan
nan 5 6 7 9 8 9 9 5 5 7 8 9 8 11 10 7 7 10 8 1 -1 1 6 10 13 11 7 8 9 10 9 8 5 6 8 6 4 6 8 10 14 17 18 19 18 17 15 13 11 8 6 7 7 7 7 7 6 6 7 7 7 9 12 12 11 10 11 11 11 9 9 9 8 6 4 2 2 3 4 4 5 8 11 13 14 13 12 10 7 4 4 3 3 4 5 6 7 7 8 8 9 nan
nan 5 5 5 7 8 11 10 6 5 6 8 10 10 13 13 8 6 11 14 8 3 -1 0 5 10 12 9 8 9 9 8 7 3 2 6 7 7 7 7 9 12 14 14 16 19 20 18 17 16 13 8 5 5 5 6 7 7 6 6 6 7 8 9 8 9 10 11 12 12 12 13 11 7 2 1 -0 -0 1 1 4 6 8 8 7 7 7 5 3 -0 -0 3 4 5 6 8 8 8 9 9 9 9 nan
nan 3 1 3 6 8 10 11 9 6 4 6 8 9 11 12 9 7 7 11 11 9 5 2 1 4 7 9 9 11 11 8 7 4 3 5 8 10 11 10 9 7 6 9 13 17 20 19 17 18 17 9 5 2 3 4 6 8 8 7 7 8 8 8 8 8 9 10 11 12 13 13 11 8 4 3 4 4 4 3 4 5 7 7 8 10 10 6 1 -0 4 7 8 8 9 9 9 9 9 8 8 8 nan
nan 6 -1 -2 3 6 9 11 11 8 4 4 7 8 10 10 8 7 6 6 7 8 9 7 3 0 3 7 8 10 12 10 8 7 5 5 6 8 9 9 6 6 7 9 10 13 14 11 9 9 10 9 8 8 9 7 8 9 10 8 7 7 7 7 8 8 8 9 10 10 10 9 8 6 5 7 9 10 9 7 5 5 5 6 7 8 5 1 2 9 16 16 13 11 9 9 9 8 7 7 7 7 nan
nan 6 1 -2 -0 3 9 10 7 8 7 4 6 8 11 11 8 7 8 7 5 4 5 8 7 2 2 6 7 8 11 12 10 9 7 5 3 2 4 7 8 11 12 10 8 7 4 2 4 8 10 13 15 17 17 13 9 7 6 6 5 5 5 7 7 8 8 9 9 9 9 8 7 6 8 11 11 9 6 5 7 8 7 7 7 6 3 4 12 20 21 18 15 12 9 7 7 7 6 6 6 6 nan
nan 6 4 3 1 -1 5 9 7 7 6 5 6 7 9 11 12 10 9 10 8 4 1 5 8 3 -1 4 7 7 8 11 11 10 8 7 5 1 -0 3 6 8 9 9 7 5 1 3 12 15 14 14 13 13 12 11 8 5 5 6 5 5 6 7 7 8 8 8 7 8 9 8 9 10 13 13 9 7 6 8 10 11 10 9 9 9 10 11 14 15 14 14 15 14 7 5 5 5 5 5 6 7 nan
nan 10 7 6 4 -0 -1 5 8 6 6 6 6 7 8 9 12 13 12 11 10 8 3 3 10 10 2 -1 4 7 6 8 11 10 9 9 8 5 1 -0 -1 -1 0 4 5 5 3 5 11 13 11 10 9 8 7 8 8 8 8 7 8 8 7 5 5 6 6 5 6 7 8 8 9 11 12 9 9 10 11 11 10 9 9 8 8 9 9 8 7 7 9 8 9 5 1 2 4 5 5 6 7 8 nan
nan 12 12 8 6 2 -3 0 6 6 7 8 6 6 7 8 9 11 14 13 10 11 6 1 6 13 11 3 2 6 7 6 8 10 11 10 11 10 6 1 -1 -2 -2 -0 2 2 4 8 9 7 5 8 10 10 11 11 12 12 10 8 8 8 7 6 5 4 4 5 5 6 7 8 8 9 10 10 11 12 12 10 9 9 8 10 11 11 7 5 5 5 1 -3 -6 -8 -3 2 5 6 7 7 8 9 nan
nan 8 11 9 9 5 -1 -1 2 4 7 8 6 6 8 8 8 8 12 14 13 13 7 1 3 8 13 9 4 5 8 7 5 7 9 11 14 14 11 8 6 5 3 0 0 0 2 4 6 6 6 7 9 10 12 11 12 12 11 9 7 7 9 10 9 7 7 6 6 6 7 8 9 9 9 11 11 11 12 10 10 9 11 13 12 10 5 6 7 5 -1 -2 -2 -2 2 6 7 7 7 7 8 8 nan
nan 4 10 12 10 5 2 2 2 2 5 7 6 6 8 9 7 7 9 14 15 13 8 3 2 3 9 11 6 4 8 10 7 5 5 8 13 16 13 11 11 12 10 6 5 5 2 -0 0 2 5 6 5 7 9 10 9 9 9 10 10 10 10 11 10 10 9 8 9 9 9 7 8 8 8 8 8 9 10 9 10 10 11 10 8 7 8 9 10 10 12 13 11 8 6 7 7 6 6 6 7 7 nan
nan nan nan nan nan nan nan nan nan nan nan nan nan nan nan nan nan nan nan nan nan nan nan nan nan nan nan nan nan nan nan nan nan nan nan nan nan nan nan nan nan nan nan nan nan nan nan nan nan nan nan nan nan nan nan nan nan nan nan nan nan nan nan nan nan nan nan nan nan nan nan nan nan nan nan nan nan nan nan nan nan nan nan nan nan nan nan nan nan nan nan nan nan nan nan nan nan nan nan nan nan nan nan
CAPE
3 3 5 9 10 10 16 20 23 23 26 29 29 29 32 32 32 32 29 28 28 25 22 17 17 17 19 18 18 18 19 22 23 23 20 20 20 16 13 13 13 7 0 nan nan nan nan nan nan nan nan nan nan nan nan nan nan nan nan nan nan nan nan 56 73 73 83 92 93 93 86 76 66 66 60 60 60 58 57 56 56 52 45 37 33 33 33 35 40 40 45 52 60 60 62 62 62 60 62 66 66 67 68
3 3 4 6 10 10 15 19 22 22 26 27 29 29 30 29 29 29 28 26 26 24 21 17 16 16 16 17 17 17 17 18 19 19 18 16 16 14 12 10 10 5 0 nan nan nan nan nan nan nan nan nan nan nan nan nan nan nan nan nan nan nan 2 63 79 79 88 95 98 98 96 90 82 82 77 72 72 67 64 65 65 63 59 52 43 43 40 37 38 38 42 48 52 52 58 60 60 60 61 62 62 65 70
3 4 5 5 9 9 13 17 20 20 23 25 27 27 27 28 28 28 27 24 24 21 19 16 13 13 15 16 14 14 13 15 14 14 15 14 14 12 10 8 8 3 nan nan nan nan nan nan nan nan nan nan nan nan nan nan nan nan nan nan nan nan 20 68 80 80 88 93 96 96 95 92 86 86 82 82 82 79 78 75 75 74 70 65 57 57 53 47 42 42 43 45 49 49 54 58 58 61 59 60 60 63 67
4 5 5 5 7 7 10 16 19 19 21 22 24 24 25 26 26 25 24 22 22 18 16 15 10 10 10 12 10 10 9 11 11 11 11 12 12 9 8 5 5 1 nan nan nan nan nan nan nan nan nan nan nan nan nan nan nan nan nan nan nan nan 45 69 80 80 85 87 91 91 91 89 83 83 82 80 80 80 82 84 84 83 82 76 69 69 66 59 52 52 48 47 47 47 50 54 54 58 58 61 61 63 63
3 5 6 6 6 6 8 13 15 15 17 19 22 22 24 23 23 22 22 19 19 16 14 9 8 8 8 7 7 7 8 9 9 9 8 8 8 7 5 2 2 0 nan nan nan nan nan nan nan nan nan nan nan nan nan nan nan nan nan nan nan nan 49 65 78 78 86 88 89 89 89 88 84 84 81 79 79 80 82 83 83 84 85 84 81 81 77 71 65 65 59 54 50 50 48 52 52 55 58 58 58 60 62
2 5 6 6 6 6 8 11 14 14 16 16 18 18 20 20 20 18 18 15 15 13 10 7 5 5 5 5 4 4 4 5 6 6 7 5 5 4 3 1 1 nan nan nan nan nan nan nan nan nan nan nan nan nan nan nan nan nan nan nan nan 0 45 61 73 73 87 91 91 91 92 89 83 83 82 80 80 80 82 82 82 84 84 85 84 84 85 82 80 80 73 67 60 60 53 51 51 52 57 58 58 59 62
1 4 6 6 5 5 7 9 11 11 13 14 16 16 17 16 16 15 15 13 13 9 7 4 3 3 2 1 1 1 1 2 3 3 3 2 2 2 1 0 0 nan nan nan nan nan nan nan nan nan nan nan nan nan nan nan nan nan nan nan nan 11 41 57 70 70 88 95 98 98 96 92 86 86 83 82 82 78 81 82 82 81 81 83 82 82 84 84 85 85 84 79 73 73 65 58 58 53 55 56 56 60 60
nan 2 4 4 4 4 5 7 10 10 11 12 11 11 14 14 14 12 10 9 9 6 3 2 1 1 0 0 0 0 0 0 0 0 1 1 1 0 0 nan nan nan nan nan nan nan nan nan nan nan nan nan nan nan nan nan nan nan nan nan nan 13 40 56 70 70 85 94 96 96 96 93 86 86 84 82 82 83 81 80 80 82 80 79 79 79 80 82 85 85 86 87 83 83 77 70 70 64 57 57 57 59 63
nan 0 1 2 2 2 3 4 6 6 8 9 8 8 10 11 11 9 7 5 5 4 2 1 0 0 nan nan nan nan nan nan nan nan nan nan nan nan nan nan nan nan nan nan nan nan nan nan nan nan nan nan nan nan nan nan nan nan nan nan nan 5 40 55 69 69 81 88 92 92 92 88 83 83 81 83 83 83 82 79 79 80 79 77 76 76 79 81 82 82 85 88 88 88 85 83 83 77 70 65 65 61 62
nan nan 0 1 1 1 2 2 4 4 5 6 7 7 8 8 8 7 5 3 3 2 1 nan nan nan nan nan nan nan nan nan nan nan nan nan nan nan nan nan nan nan nan nan nan nan nan nan nan nan nan nan nan nan nan nan nan nan nan nan nan 16 43 58 71 71 82 86 87 87 86 82 79 79 77 80 80 83 81 82 82 80 78 76 74 74 75 80 81 81 81 84 87 87 88 89 89 88 88 79 79 70 66
nan nan nan nan 0 0 1 2 3 3 4 5 5 5 6 5 5 5 3 2 2 1 0 nan nan nan nan nan nan nan nan nan nan nan nan nan nan nan nan nan nan nan nan nan nan nan nan nan nan nan nan nan nan nan nan nan nan nan nan nan nan 27 46 60 74 74 82 83 84 84 85 79 75 75 76 78 78 78 79 79 79 76 76 73 74 74 74 80 80 80 81 86 86 86 88 90 90 92 95 94 94 86 74
nan nan nan nan nan nan nan 0 2 2 4 4 4 4 4 3 3 2 2 1 1 0 nan nan nan nan nan nan nan nan nan nan nan nan nan nan nan nan nan nan nan nan nan nan nan nan nan nan nan nan nan nan nan nan nan nan nan nan nan 1 1 29 49 65 81 81 87 86 88 88 88 80 78 78 76 77 77 78 78 77 77 77 75 74 74 74 76 78 79 79 83 86 88 88 89 91 91 95 98 98 98 100 91
nan nan nan nan nan nan nan nan 0 0 1 2 2 2 2 1 1 1 1 0 0 nan nan nan nan nan nan nan nan nan nan nan nan nan nan nan nan nan nan nan nan nan nan nan nan nan nan nan nan nan nan nan nan nan nan nan nan nan nan 15 15 34 51 68 85 85 90 93 95 95 93 83 84 84 83 82 82 79 78 77 77 73 73 73 75 75 77 80 80 80 84 87 88 88 90 92 92 97 99 100 100 103 102
nan nan nan nan nan nan nan nan nan nan nan 0 0 0 0 0 0 0 0 nan nan nan nan nan nan nan nan nan nan nan nan nan nan nan nan nan nan nan nan nan nan nan nan nan nan nan nan nan nan nan nan nan nan nan nan nan nan nan nan 16 16 37 54 70 86 86 94 98 95 95 93 83 84 84 90 88 88 83 81 79 79 75 73 72 73 73 77 80 84 84 84 87 86 86 88 92 92 96 98 100 100 102 105
nan nan nan nan nan nan nan nan nan nan nan nan nan nan nan nan nan nan nan nan nan nan nan nan nan nan nan nan nan nan nan nan nan nan nan nan nan nan nan nan nan nan nan nan nan nan nan nan nan nan nan nan nan nan nan nan nan nan nan 16 16 38 54 67 82 82 92 98 96 96 93 90 90 90 91 93 93 92 89 86 86 80 76 76 75 75 78 81 84 84 84 84 86 86 87 90 90 95 100 101 101 105 109
nan nan nan nan nan nan nan nan nan nan nan nan nan nan nan nan nan nan nan nan nan nan nan nan nan nan nan nan nan nan nan nan nan nan nan nan nan nan nan nan nan nan nan nan nan nan nan nan nan nan nan nan nan nan nan nan nan nan 0 18 18 37 52 65 80 80 90 98 96 96 94 90 91 91 95 99 99 98 99 97 97 91 88 85 85 85 89 86 86 86 84 83 82 82 85 89 89 94 98 101 101 105 110
nan nan nan nan nan nan nan nan nan nan nan nan nan nan nan nan nan nan nan nan nan nan nan nan nan nan nan nan nan nan nan nan nan nan nan nan nan nan nan nan nan nan nan nan nan nan nan nan nan nan nan nan nan nan nan nan nan nan 0 18 18 37 50 62 75 75 87 96 96 96 96 95 97 97 100 103 103 104 106 106 106 101 97 97 98 98 99 96 93 93 91 87 80 80 81 86 86 89 97 100 100 104 109
nan nan nan nan nan nan nan nan nan nan nan nan nan nan nan nan nan nan nan nan nan nan nan nan nan nan nan nan nan nan nan nan nan nan nan nan nan nan nan nan nan nan nan nan nan nan nan nan nan nan nan nan nan nan nan nan nan nan 2 20 20 36 47 59 71 71 88 95 99 99 99 98 103 103 105 107 107 110 110 109 109 103 104 106 108 108 115 105 106 106 102 99 92 92 88 86 86 88 94 99 99 104 109
nan nan nan nan nan nan nan nan nan nan nan nan nan nan nan nan nan nan nan nan nan nan nan nan nan nan nan nan nan nan nan nan nan nan nan nan nan nan nan nan nan nan nan nan nan nan nan nan nan nan nan nan nan nan nan nan nan nan 1 23 23 35 44 58 70 70 85 97 99 99 103 103 110 110 112 112 112 113 108 110 110 108 110 108 116 116 113 109 110 110 111 107 105 105 104 99 99 101 97 102 102 104 110
nan nan nan nan nan nan nan nan nan nan nan nan nan nan nan nan nan nan nan nan nan nan nan nan nan nan nan nan nan nan nan nan nan nan nan nan nan nan nan nan nan nan nan nan nan nan nan nan nan nan nan nan nan nan nan nan nan nan 1 15 15 29 38 49 66 66 81 91 100 100 105 115 113 113 112 111 111 106 108 109 109 112 114 119 119 119 115 114 113 113 112 106 117 117 119 129 129 131 134 129 129 126 121
nan nan nan nan nan nan nan nan nan nan nan nan nan nan nan nan nan nan nan nan nan nan nan nan nan nan nan nan nan nan nan nan nan nan nan nan nan nan nan nan nan nan nan nan nan nan nan nan nan nan nan nan nan nan nan nan nan nan 0 8 8 24 33 42 63 63 76 89 100 100 107 112 116 116 111 111 111 108 106 111 111 114 119 122 117 117 116 114 111 111 111 112 116 116 122 127 127 139 140 145 145 143 134
nan nan nan nan nan nan nan nan nan nan nan nan nan nan nan nan nan nan nan nan nan nan nan nan nan nan nan nan nan nan nan nan nan nan nan nan nan nan nan nan nan nan nan nan nan nan nan nan nan nan nan nan nan nan nan nan nan nan nan 5 5 16 25 39 61 61 78 86 99 99 106 119 118 118 112 109 109 108 107 109 109 117 121 125 121 121 115 113 112 112 109 114 121 121 123 129 129 138 149 155 155 156 151
nan nan nan nan nan nan nan nan nan nan nan nan nan nan nan nan nan nan nan nan nan nan nan nan nan nan nan nan nan nan nan nan nan nan nan nan nan nan nan nan nan nan nan nan nan nan nan nan nan nan nan nan nan nan nan nan nan nan nan 1 1 11 21 38 59 59 76 87 99 99 109 121 125 125 117 113 113 107 109 113 113 118 123 122 119 119 118 115 116 116 112 115 120 120 128 132 132 142 154 156 156 159 159
nan nan nan nan nan nan nan nan nan nan nan nan nan nan nan nan nan nan nan nan nan nan nan nan nan nan nan nan nan nan nan nan nan nan nan nan nan nan nan nan nan nan nan nan nan nan nan nan nan nan nan nan nan nan nan nan nan nan nan 0 0 6 19 34 55 55 71 84 97 97 111 126 135 135 124 115 115 111 114 118 118 122 125 123 122 122 118 119 115 115 120 119 122 122 129 133 133 143 156 158 158 155 159
nan nan nan nan nan nan nan nan nan nan nan nan nan nan nan nan nan nan nan nan nan nan nan nan nan nan nan nan nan nan nan nan nan nan nan nan nan nan nan nan nan nan nan nan nan nan nan nan nan nan nan nan nan nan nan nan nan nan nan nan nan 3 14 29 48 48 67 84 98 98 115 131 135 135 126 120 120 119 124 123 123 126 127 123 123 123 123 122 122 122 126 125 131 131 130 135 135 141 153 153 153 149 153
nan nan nan nan nan nan nan nan nan nan nan nan nan nan nan nan nan nan nan nan nan nan nan nan nan nan nan nan nan nan nan nan nan nan nan nan nan nan nan nan nan nan nan nan nan nan nan nan nan nan nan nan nan nan nan nan nan nan nan nan nan 1 10 24 39 39 63 79 95 95 112 132 135 135 129 127 127 127 134 130 130 130 129 125 124 124 126 130 131 131 133 132 131 131 133 138 138 139 146 144 144 150 154
nan nan nan nan nan nan nan nan nan nan nan nan nan nan nan nan nan nan nan nan nan nan nan nan nan nan nan nan nan nan nan nan nan nan nan nan nan nan nan nan nan nan nan nan nan nan nan nan nan nan nan nan nan nan nan nan nan nan nan nan nan 0 7 20 33 33 54 76 93 93 112 131 132 132 128 125 125 134 138 141 141 134 132 123 126 126 134 140 143 143 139 140 140 140 138 140 140 142 141 143 143 147 153
nan nan nan nan nan nan nan nan nan nan nan nan nan nan nan nan nan nan nan nan nan nan nan nan nan nan nan nan nan nan nan nan nan nan nan nan nan nan nan nan nan nan nan nan nan nan nan nan nan nan nan nan nan nan nan nan nan nan nan nan nan 0 5 16 28 28 50 72 91 91 105 121 128 128 127 126 126 135 141 142 142 141 133 131 133 133 140 145 147 147 149 148 146 146 141 142 142 141 141 144 144 150 155
nan nan nan nan nan nan nan nan nan nan nan nan nan nan nan nan nan nan nan nan nan nan nan nan nan nan nan nan nan nan nan nan nan nan nan nan nan nan nan nan nan nan nan nan nan nan nan nan nan nan nan nan nan nan nan nan nan nan nan nan nan nan 3 13 25 25 46 65 85 85 100 114 120 120 122 126 126 134 140 147 147 143 135 135 137 137 144 146 150 150 151 148 148 148 143 140 140 137 143 148 148 150 158
nan nan nan nan nan nan nan nan nan nan nan nan nan nan nan nan nan nan nan nan nan nan nan nan nan nan nan nan nan nan nan nan nan nan nan nan nan nan nan nan nan nan nan nan nan nan nan nan nan nan nan nan nan nan nan nan nan nan nan nan nan nan 1 9 22 22 41 61 80 80 98 109 114 114 118 123 123 129 141 143 143 141 139 138 142 142 149 152 152 152 155 147 147 147 146 145 145 140 144 148 148 152 156
nan nan nan nan nan nan nan nan nan nan nan nan nan nan nan nan nan nan nan nan nan nan nan nan nan nan nan nan nan nan nan nan nan nan nan nan nan nan nan nan nan nan nan nan nan nan nan nan nan nan nan nan nan nan nan nan nan nan nan nan nan nan 0 6 18 18 37 58 78 78 94 102 107 107 113 118 118 127 135 140 140 139 143 146 153 153 157 156 158 158 157 149 142 142 139 141 141 140 141 151 151 156 163
nan nan nan nan nan nan nan nan nan nan nan nan nan nan nan nan nan nan nan nan nan nan nan nan nan nan nan nan nan nan nan nan nan nan nan nan nan nan nan nan nan nan nan nan nan nan nan nan nan nan nan nan nan nan nan nan nan nan nan nan nan nan nan 3 14 14 31 53 75 75 91 96 101 101 109 118 118 127 133 135 135 138 143 153 158 158 165 167 165 165 158 148 142 142 132 137 137 138 146 154 154 158 163
nan nan nan nan nan nan nan nan nan nan nan nan nan nan nan nan nan nan nan nan nan nan nan nan nan nan nan nan nan nan nan nan nan nan nan nan nan nan nan nan nan nan nan nan nan nan nan nan nan nan nan nan nan nan nan nan nan nan nan nan nan nan nan 1 10 10 25 47 64 64 82 91 96 96 108 116 116 123 130 137 137 141 148 155 167 167 171 176 173 173 164 155 144 144 136 135 135 139 147 155 155 157 161
nan nan nan nan nan nan nan nan nan nan nan nan nan nan nan nan nan nan nan nan nan nan nan nan nan nan nan nan nan nan nan nan nan nan nan nan nan nan nan nan nan nan nan nan nan nan nan nan nan nan nan nan nan nan nan nan nan nan nan nan nan nan nan 0 6 6 18 33 52 52 67 81 90 90 102 110 110 118 125 137 137 146 153 160 170 170 171 179 174 174 165 152 146 146 141 138 138 138 149 152 152 155 161
nan nan nan nan nan nan nan nan nan nan nan nan nan nan nan nan nan nan nan nan nan nan nan nan nan nan nan nan nan nan nan nan nan nan nan nan nan nan nan nan nan nan nan nan nan nan nan nan nan nan nan nan nan nan nan nan nan nan nan nan nan nan nan 0 2 2 7 16 29 29 47 62 76 76 89 99 99 109 113 129 129 144 157 162 169 169 172 172 167 167 159 152 148 148 145 144 144 142 147 154 154 157 159
nan nan nan nan nan nan nan nan nan nan nan nan nan nan nan nan nan nan nan nan nan nan nan nan nan nan nan nan nan nan nan nan nan nan nan nan nan nan nan nan nan nan nan nan nan nan nan nan nan nan nan nan nan nan nan nan nan nan nan nan nan nan nan nan 0 0 2 5 13 13 27 42 57 57 69 82 82 92 107 119 119 138 156 165 168 168 170 163 160 160 151 146 148 148 152 151 151 148 151 152 152 157 156
nan nan nan nan nan nan nan nan nan nan nan nan nan nan nan nan nan nan nan nan nan nan nan nan nan nan nan nan nan nan nan nan nan nan nan nan nan nan nan nan nan nan nan nan nan nan nan nan nan nan nan nan nan nan nan nan nan nan nan nan nan nan nan nan nan nan 0 2 6 6 14 27 36 36 50 62 62 77 99 112 112 125 143 156 166 166 164 158 152 152 147 144 149 149 153 151 151 157 155 151 151 155 157
nan nan nan nan nan nan nan nan nan nan nan nan nan nan nan nan nan nan nan nan nan nan nan nan nan nan nan nan nan nan nan nan nan nan nan nan nan nan nan nan nan nan nan nan nan nan nan nan nan nan nan nan nan nan nan nan nan nan nan nan nan nan nan nan nan nan nan 4 3 3 9 16 23 23 31 49 49 70 91 109 109 118 129 140 147 147 151 150 150 150 146 142 150 150 158 158 158 155 151 150 150 157 162
nan nan nan nan nan nan nan nan nan nan nan nan nan nan nan nan nan nan nan nan nan nan nan nan nan nan nan nan nan nan nan nan nan nan nan nan nan nan nan nan nan nan nan nan nan nan nan nan nan nan nan nan nan nan nan nan nan nan nan nan nan nan nan nan nan nan nan 0 4 4 5 7 12 12 19 35 35 58 79 98 98 109 117 127 135 135 137 140 142 142 145 143 150 150 159 156 156 154 151 150 150 156 159
nan nan nan nan nan nan nan nan nan nan nan nan nan nan nan nan nan nan nan nan nan nan nan nan nan nan nan nan nan nan nan nan nan nan nan nan nan nan nan nan nan nan nan nan nan nan nan nan nan nan nan nan nan nan nan nan nan nan nan nan nan nan nan nan nan nan nan nan nan nan 4 2 4 4 12 27 27 47 69 85 85 95 105 115 124 124 130 133 137 137 144 147 150 150 159 158 158 151 149 155 155 156 163
nan nan nan nan nan nan nan nan nan nan nan nan nan nan nan nan nan nan nan nan nan nan nan nan nan nan nan nan nan nan nan nan nan nan nan nan nan nan nan nan nan nan nan nan nan nan nan nan nan nan nan nan nan nan nan nan nan nan nan nan nan nan nan nan nan nan nan nan nan nan nan 1 2 2 7 18 18 37 55 71 71 77 86 98 108 108 119 126 135 135 143 152 152 152 157 160 160 162 156 156 156 162 165
nan nan nan nan nan nan nan nan nan nan nan nan nan nan nan nan nan nan nan nan nan nan nan nan nan nan nan nan nan nan nan nan nan nan nan nan nan nan nan nan nan nan nan nan nan nan nan nan nan nan nan nan nan nan nan nan nan nan nan nan nan nan nan nan nan nan nan nan nan nan nan 0 1 1 5 14 14 28 41 46 46 48 57 74 90 90 104 119 131 131 142 152 157 157 159 162 162 165 164 166 166 167 169
nan nan nan nan nan nan nan nan nan nan nan nan nan nan nan nan nan nan nan nan nan nan nan nan nan nan nan nan nan nan nan nan nan nan nan nan nan nan nan nan nan nan nan nan nan nan nan nan nan nan nan nan nan nan nan nan nan nan nan nan nan nan nan nan nan nan nan nan nan nan nan nan 2 2 4 7 7 10 11 8 8 10 18 35 59 59 79 95 113 113 131 146 159 159 167 173 173 176 179 181 181 179 178
nan nan nan nan nan nan nan nan nan nan nan nan nan nan nan nan nan nan nan nan nan nan nan nan nan nan nan nan nan nan nan nan nan nan nan nan nan nan nan nan nan nan nan nan nan nan nan nan nan nan nan nan nan nan nan nan nan nan nan nan nan nan nan nan nan nan nan nan nan nan nan nan nan nan 1 3 3 6 6 6 6 8 16 28 49 49 66 77 97 97 118 139 156 156 168 179 179 182 184 191 191 191 189
nan nan nan nan nan nan nan nan nan nan nan nan nan nan nan nan nan nan nan nan nan nan nan nan nan nan nan nan nan nan nan nan nan nan nan nan nan nan nan nan nan nan nan nan nan nan nan nan nan nan nan nan nan nan nan nan nan nan nan nan nan nan nan nan nan nan nan nan nan nan nan nan nan nan nan nan nan nan 0 4 4 8 15 25 37 37 49 57 76 76 107 128 148 148 165 175 175 182 191 198 198 200 198
nan nan nan nan nan nan nan nan nan nan nan nan nan nan nan nan nan nan nan nan nan nan nan nan nan nan nan nan nan nan nan nan nan nan nan nan nan nan nan nan nan nan nan nan nan nan nan nan nan nan nan nan nan nan nan nan nan nan nan nan nan nan nan nan nan nan nan nan nan nan nan nan nan nan nan nan nan nan nan 3 3 7 13 19 28 28 38 41 59 59 85 114 137 137 156 171 171 182 189 200 200 210 215
nan nan nan nan nan nan nan nan nan nan nan nan nan nan nan nan nan nan nan nan nan nan nan nan nan nan nan nan nan nan nan nan nan nan nan nan nan nan nan nan nan nan nan nan nan nan nan nan nan nan nan nan nan nan nan nan nan nan nan nan nan nan nan nan nan nan nan nan nan nan nan nan nan nan nan nan nan nan nan 0 0 6 9 13 19 19 27 31 43 43 64 93 123 123 147 165 165 181 189 202 202 215 212
nan nan nan nan nan nan nan nan nan nan nan nan nan nan nan nan nan nan nan nan nan nan nan nan nan nan nan nan nan nan nan nan nan nan nan nan nan nan nan nan nan nan nan nan nan nan nan nan nan nan nan nan nan nan nan nan nan nan nan nan nan nan nan nan nan nan nan nan nan nan nan nan nan nan nan nan nan nan nan nan nan nan 5 8 15 15 22 25 32 32 50 83 113 113 140 158 158 172 186 199 199 202 207
nan nan nan nan nan nan nan nan nan nan nan nan nan nan nan nan nan nan nan nan nan nan nan nan nan nan nan nan nan nan nan nan nan nan nan nan nan nan nan nan nan nan nan nan nan nan nan nan nan nan nan nan nan nan nan nan nan nan nan nan nan nan nan nan nan nan nan nan nan nan nan nan nan nan nan nan nan nan nan nan nan nan nan 10 14 14 18 19 23 23 40 70 99 99 131 157 157 167 178 190 190 195 201
nan nan nan nan nan nan nan nan nan nan nan nan nan nan nan nan nan nan nan nan nan nan nan nan nan nan nan nan nan nan nan nan nan nan nan nan nan nan nan nan nan nan nan nan nan nan nan nan nan nan nan nan nan nan nan nan nan nan nan nan nan nan nan nan nan nan nan nan nan nan nan nan nan nan nan nan nan nan nan nan nan nan 0 0 3 3 6 14 20 20 33 62 84 84 115 144 144 163 173 176 176 185 198
nan nan nan nan nan nan nan nan nan nan nan nan nan nan nan nan nan nan nan nan nan nan nan nan nan nan nan nan nan nan nan nan nan nan nan nan nan nan nan nan nan nan nan nan nan nan nan nan nan nan nan nan nan nan nan nan nan nan nan nan nan nan nan nan nan nan nan nan nan nan nan nan nan nan nan nan nan nan nan nan nan nan nan nan nan nan nan nan 19 19 35 57 71 71 97 126 126 150 160 167 167 172 197
nan nan nan nan nan nan nan nan nan nan nan nan nan nan nan nan nan nan nan nan nan nan nan nan nan nan nan nan nan nan nan nan nan nan nan nan nan nan nan nan nan nan nan nan nan nan nan nan nan nan nan nan nan nan nan nan nan nan nan nan nan nan nan nan nan nan nan nan nan nan nan nan 0 0 nan nan nan nan nan nan nan nan nan nan nan nan nan 5 18 18 42 59 69 69 83 106 106 129 141 154 154 166 191
nan nan nan nan nan nan nan nan nan nan nan nan nan nan nan nan nan nan nan nan nan nan nan nan nan nan nan nan nan nan nan nan nan nan nan nan nan nan nan nan nan nan nan nan nan nan nan nan nan nan nan nan nan nan nan nan nan nan nan nan nan nan nan nan nan nan nan nan nan nan nan nan 0 0 nan nan nan nan nan nan nan nan nan nan nan nan nan 3 28 28 43 57 67 67 72 84 84 103 124 144 144 166 194
nan nan nan nan nan nan nan nan nan nan nan nan nan nan nan nan nan nan nan nan nan nan nan nan nan nan nan nan nan nan nan nan nan nan nan nan nan nan nan nan nan nan nan nan nan nan nan nan nan nan nan nan nan nan nan nan nan nan nan nan nan nan nan nan nan nan nan nan nan nan nan nan nan nan nan nan nan nan nan nan nan nan nan nan nan nan nan 0 30 30 39 49 54 54 61 72 72 85 111 140 140 164 201
nan nan nan nan nan nan nan nan nan nan nan nan nan nan nan nan nan nan nan nan nan nan nan nan nan nan nan nan nan nan nan nan nan nan nan nan nan nan nan nan nan nan nan nan nan nan nan nan nan nan nan nan nan nan nan nan nan nan nan nan nan nan nan nan nan nan nan nan nan nan nan nan nan nan nan nan nan nan nan nan nan nan nan nan nan nan nan 15 23 23 17 21 39 39 50 70 70 78 108 142 142 175 211
nan nan nan nan nan nan nan nan nan nan nan nan nan nan nan nan nan nan nan nan nan nan nan nan nan nan nan nan nan nan nan nan nan nan nan nan nan nan nan nan nan nan nan nan nan nan nan nan nan nan nan nan nan nan nan nan nan nan nan nan nan nan nan nan nan nan nan nan nan nan nan nan nan nan nan nan nan nan nan nan nan nan nan nan nan nan nan 3 0 0 1 3 25 25 41 62 62 79 113 144 144 172 205
nan nan nan nan nan nan nan nan nan nan nan nan nan nan nan nan nan nan nan nan nan nan nan nan nan nan nan nan nan nan nan nan nan nan nan nan nan nan nan nan nan nan nan nan nan nan nan nan nan nan nan nan nan nan nan nan nan nan nan nan nan nan nan nan nan nan nan nan nan nan nan nan nan nan nan nan nan nan nan nan nan nan nan nan nan nan nan nan 0 0 0 1 1 1 39 58 58 77 111 143 143 163 193
nan nan nan nan nan nan nan nan nan nan nan nan nan nan nan nan nan nan nan nan nan nan nan nan nan nan nan nan nan nan nan nan nan nan nan nan nan nan nan nan nan nan nan nan nan nan nan nan nan nan nan nan nan nan nan nan nan nan nan nan nan nan nan nan nan nan nan nan nan nan nan nan nan nan nan nan nan nan nan nan nan nan nan nan nan nan nan nan 1 1 0 5 12 12 52 51 51 68 97 131 131 157 191
nan nan nan nan nan nan nan nan nan nan nan nan nan nan nan nan nan nan nan nan nan nan nan nan nan nan nan nan nan nan nan nan nan nan nan nan nan nan nan nan nan nan nan nan nan nan nan nan nan nan nan nan nan nan nan nan nan nan nan nan nan nan nan nan nan nan nan nan nan nan nan nan nan nan nan nan nan nan nan nan nan nan nan nan nan nan nan 4 11 11 22 40 48 48 45 41 41 55 84 124 124 160 194
nan nan nan nan nan nan nan nan nan nan nan nan nan nan nan nan nan nan nan nan nan nan nan nan nan nan nan nan nan nan nan nan nan nan nan nan nan nan nan nan nan nan nan nan nan nan nan nan nan nan nan nan nan nan nan nan nan nan nan nan nan nan nan nan nan nan nan nan nan nan nan nan nan nan nan nan nan nan nan nan nan nan nan nan nan nan nan nan 1 1 15 40 43 43 28 36 36 54 83 126 126 165 207
nan nan nan nan nan nan nan nan nan nan nan nan nan nan nan nan nan nan nan nan nan nan nan nan nan nan nan nan nan nan nan nan nan nan nan nan nan nan nan nan nan nan nan nan nan nan nan nan nan nan nan nan nan nan nan nan nan nan nan nan nan nan nan nan nan nan nan nan nan nan nan nan nan nan nan nan nan nan nan nan nan nan nan nan nan nan nan nan nan nan 0 4 29 29 25 33 33 52 83 127 127 166 212